Time,TemperatureF,DewpointF,PressureIn,WindDirection,WindDirectionDegrees,WindSpeedMPH,WindSpeedGustMPH,Humidity,HourlyPrecipIn,Conditions,Clouds,dailyrainin,SolarRadiationWatts/m^2,SoftwareType,DateUTC
2013-01-10 00:00:00,41.6,27.9,30.34,ESE,116,6.0,12.0,58,0.00,CLR,,0.00,0.0,WeatherDisplay:10.37,2013-01-10 06:00:00,
2013-01-10 00:05:00,41.7,28.4,30.34,ESE,120,5.0,12.0,59,0.00,CLR,,0.00,0.0,WeatherDisplay:10.37,2013-01-10 06:05:00,
2013-01-10 00:10:00,41.8,28.5,30.34,ESE,118,6.0,12.0,59,0.00,CLR,,0.00,0.0,WeatherDisplay:10.37,2013-01-10 06:10:00,
2013-01-10 00:15:00,42.0,28.7,30.34,ESE,116,7.0,12.0,59,0.00,CLR,,0.00,0.0,WeatherDisplay:10.37,2013-01-10 06:15:00,
2013-01-10 00:20:00,42.3,28.9,30.33,ESE,113,6.0,12.0,59,0.00,CLR,,0.00,0.0,WeatherDisplay:10.37,2013-01-10 06:20:00,
2013-01-10 00:25:00,42.4,29.0,30.33,ESE,113,9.0,14.0,59,0.00,CLR,,0.00,0.0,WeatherDisplay:10.37,2013-01-10 06:25:00,
2013-01-10 00:30:00,42.6,29.2,30.33,ESE,110,10.0,16.0,59,0.00,CLR,,0.00,0.0,WeatherDisplay:10.37,2013-01-10 06:30:00,
2013-01-10 00:35:00,42.7,29.3,30.33,ESE,110,7.0,15.0,59,0.00,CLR,,0.00,0.0,WeatherDisplay:10.37,2013-01-10 06:35:00,
2013-01-10 00:40:00,42.7,29.3,30.32,ESE,117,8.0,15.0,59,0.00,CLR,,0.00,0.0,WeatherDisplay:10.37,2013-01-10 06:40:00,
2013-01-10 00:45:00,42.8,29.8,30.32,ESE,119,6.0,14.0,60,0.00,CLR,,0.00,0.0,WeatherDisplay:10.37,2013-01-10 06:45:00,
2013-01-10 00:50:00,42.7,29.8,30.32,ESE,116,8.0,15.0,60,0.00,CLR,,0.00,0.0,WeatherDisplay:10.37,2013-01-10 06:50:00,
2013-01-10 00:55:00,42.8,29.8,30.32,ESE,118,7.0,15.0,60,0.00,CLR,,0.00,0.0,WeatherDisplay:10.37,2013-01-10 06:55:00,
2013-01-10 01:00:00,42.8,29.4,30.32,ESE,123,6.0,11.0,59,0.00,CLR,,0.00,0.0,WeatherDisplay:10.37,2013-01-10 07:00:00,
2013-01-10 01:05:00,42.8,29.4,30.32,ESE,118,6.0,13.0,59,0.00,CLR,,0.00,0.0,WeatherDisplay:10.37,2013-01-10 07:05:00,
2013-01-10 01:10:00,42.8,29.0,30.32,ESE,120,9.0,18.0,58,0.00,CLR,,0.00,0.0,WeatherDisplay:10.37,2013-01-10 07:10:00,
2013-01-10 01:15:00,42.8,28.6,30.31,ESE,119,6.0,13.0,57,0.00,CLR,,0.00,0.0,WeatherDisplay:10.37,2013-01-10 07:15:00,
2013-01-10 01:20:00,42.8,28.1,30.31,ESE,114,8.0,14.0,56,0.00,CLR,,0.00,0.0,WeatherDisplay:10.37,2013-01-10 07:20:00,
2013-01-10 01:25:00,42.8,28.1,30.31,ESE,113,7.0,16.0,56,0.00,CLR,,0.00,0.0,WeatherDisplay:10.37,2013-01-10 07:25:00,
2013-01-10 01:30:00,42.9,28.3,30.31,ESE,115,7.0,23.0,56,0.00,CLR,,0.00,0.0,WeatherDisplay:10.37,2013-01-10 07:30:00,
2013-01-10 01:35:00,42.9,28.2,30.31,ESE,116,6.0,12.0,56,0.00,CLR,,0.00,0.0,WeatherDisplay:10.37,2013-01-10 07:35:00,
2013-01-10 01:40:00,42.7,28.5,30.31,ESE,120,8.0,15.0,57,0.00,CLR,,0.00,0.0,WeatherDisplay:10.37,2013-01-10 07:40:00,
2013-01-10 01:45:00,42.8,28.6,30.31,ESE,119,6.0,16.0,57,0.00,CLR,,0.00,0.0,WeatherDisplay:10.37,2013-01-10 07:45:00,
2013-01-10 01:50:00,43.0,28.8,30.31,SE,126,8.0,18.0,57,0.00,CLR,,0.00,0.0,WeatherDisplay:10.37,2013-01-10 07:50:00,
2013-01-10 01:55:00,43.1,28.9,30.31,ESE,122,8.0,14.0,57,0.00,CLR,,0.00,0.0,WeatherDisplay:10.37,2013-01-10 07:55:00,
2013-01-10 02:00:00,43.1,28.4,30.31,ESE,121,6.0,14.0,56,0.00,CLR,,0.00,0.0,WeatherDisplay:10.37,2013-01-10 08:00:00,
2013-01-10 02:05:00,43.2,29.0,30.31,ESE,115,6.0,16.0,57,0.00,CLR,,0.00,0.0,WeatherDisplay:10.37,2013-01-10 08:05:00,
2013-01-10 02:10:00,43.2,29.4,30.30,ESE,112,6.0,13.0,58,0.00,CLR,,0.00,0.0,WeatherDisplay:10.37,2013-01-10 08:10:00,
2013-01-10 02:15:00,43.1,29.3,30.30,ESE,115,6.0,16.0,58,0.00,CLR,,0.00,0.0,WeatherDisplay:10.37,2013-01-10 08:15:00,
2013-01-10 02:20:00,43.0,29.2,30.30,ESE,123,7.0,15.0,58,0.00,CLR,,0.00,0.0,WeatherDisplay:10.37,2013-01-10 08:20:00,
2013-01-10 02:25:00,43.0,29.2,30.29,ESE,120,8.0,12.0,58,0.00,CLR,,0.00,0.0,WeatherDisplay:10.37,2013-01-10 08:25:00,
2013-01-10 02:30:00,43.0,29.2,30.29,ESE,115,8.0,16.0,58,0.00,CLR,,0.00,0.0,WeatherDisplay:10.37,2013-01-10 08:30:00,
2013-01-10 02:35:00,43.0,29.2,30.29,ESE,115,9.0,18.0,58,0.00,CLR,,0.00,0.0,WeatherDisplay:10.37,2013-01-10 08:35:00,
2013-01-10 02:40:00,43.1,29.3,30.29,ESE,123,5.0,12.0,58,0.00,CLR,,0.00,0.0,WeatherDisplay:10.37,2013-01-10 08:40:00,
2013-01-10 02:45:00,43.0,29.6,30.29,SE,125,6.0,14.0,59,0.00,CLR,,0.00,0.0,WeatherDisplay:10.37,2013-01-10 08:45:00,
2013-01-10 02:50:00,42.9,29.6,30.29,ESE,120,8.0,14.0,59,0.00,CLR,,0.00,0.0,WeatherDisplay:10.37,2013-01-10 08:50:00,
2013-01-10 02:55:00,42.9,29.6,30.29,ESE,119,8.0,18.0,59,0.00,CLR,,0.00,0.0,WeatherDisplay:10.37,2013-01-10 08:55:00,
2013-01-10 03:00:00,42.9,29.5,30.28,ESE,121,6.0,12.0,59,0.00,CLR,,0.00,0.0,WeatherDisplay:10.37,2013-01-10 09:00:00,
2013-01-10 03:05:00,42.9,29.5,30.28,ESE,121,7.0,12.0,59,0.00,CLR,,0.00,0.0,WeatherDisplay:10.37,2013-01-10 09:05:00,
2013-01-10 03:10:00,42.9,29.5,30.28,ESE,120,6.0,14.0,59,0.00,CLR,,0.00,0.0,WeatherDisplay:10.37,2013-01-10 09:10:00,
2013-01-10 03:15:00,42.8,29.0,30.28,ESE,119,6.0,12.0,58,0.00,CLR,,0.00,0.0,WeatherDisplay:10.37,2013-01-10 09:15:00,
2013-01-10 03:20:00,42.8,29.4,30.28,ESE,123,8.0,13.0,59,0.00,CLR,,0.00,0.0,WeatherDisplay:10.37,2013-01-10 09:20:00,
2013-01-10 03:25:00,42.7,29.3,30.27,ESE,118,6.0,14.0,59,0.00,CLR,,0.00,0.0,WeatherDisplay:10.37,2013-01-10 09:25:00,
2013-01-10 03:30:00,42.4,29.5,30.27,ESE,110,5.0,13.0,60,0.00,CLR,,0.00,0.0,WeatherDisplay:10.37,2013-01-10 09:30:00,
2013-01-10 03:35:00,42.2,29.3,30.26,ESE,116,8.0,13.0,60,0.00,CLR,,0.00,0.0,WeatherDisplay:10.37,2013-01-10 09:35:00,
2013-01-10 03:40:00,41.9,29.9,30.26,ESE,113,6.0,14.0,62,0.00,CLR,,0.00,0.0,WeatherDisplay:10.37,2013-01-10 09:40:00,
2013-01-10 03:45:00,41.6,29.9,30.25,ESE,114,5.0,12.0,63,0.00,CLR,,0.00,0.0,WeatherDisplay:10.37,2013-01-10 09:45:00,
2013-01-10 03:50:00,41.4,29.7,30.25,ESE,112,6.0,12.0,63,0.00,CLR,,0.00,0.0,WeatherDisplay:10.37,2013-01-10 09:50:00,
2013-01-10 03:55:00,41.3,29.6,30.25,ESE,122,7.0,12.0,63,0.00,CLR,,0.00,0.0,WeatherDisplay:10.37,2013-01-10 09:55:00,
2013-01-10 04:00:00,41.3,29.3,30.24,SE,125,6.0,12.0,62,0.00,CLR,,0.00,0.0,WeatherDisplay:10.37,2013-01-10 10:00:00,
2013-01-10 04:05:00,41.5,29.4,30.24,SE,125,5.0,12.0,62,0.00,CLR,,0.00,0.0,WeatherDisplay:10.37,2013-01-10 10:05:00,
2013-01-10 04:10:00,41.6,29.5,30.24,ESE,120,5.0,12.0,62,0.00,CLR,,0.00,0.0,WeatherDisplay:10.37,2013-01-10 10:10:00,
2013-01-10 04:15:00,41.7,29.2,30.24,ESE,120,7.0,14.0,61,0.00,CLR,,0.00,0.0,WeatherDisplay:10.37,2013-01-10 10:15:00,
2013-01-10 04:20:00,41.9,29.1,30.23,ESE,115,7.0,16.0,60,0.00,CLR,,0.00,0.0,WeatherDisplay:10.37,2013-01-10 10:20:00,
2013-01-10 04:25:00,42.1,29.2,30.23,ESE,112,7.0,16.0,60,0.00,CLR,,0.00,0.0,WeatherDisplay:10.37,2013-01-10 10:25:00,
2013-01-10 04:30:00,42.1,29.6,30.23,ESE,116,9.0,20.0,61,0.00,CLR,,0.00,0.0,WeatherDisplay:10.37,2013-01-10 10:30:00,
2013-01-10 04:35:00,41.9,30.2,30.22,ESE,123,6.0,16.0,63,0.00,CLR,,0.00,0.0,WeatherDisplay:10.37,2013-01-10 10:35:00,
2013-01-10 04:40:00,41.6,30.7,30.22,ESE,122,9.0,17.0,65,0.00,CLR,,0.00,0.0,WeatherDisplay:10.37,2013-01-10 10:40:00,
2013-01-10 04:45:00,41.1,31.4,30.21,SE,127,9.0,20.0,68,0.00,CLR,,0.00,0.0,WeatherDisplay:10.37,2013-01-10 10:45:00,
2013-01-10 04:50:00,40.6,31.9,30.21,ESE,110,9.0,15.0,71,0.01,RA,,0.01,0.0,WeatherDisplay:10.37,2013-01-10 10:50:00,
2013-01-10 04:55:00,40.2,32.6,30.20,ESE,109,6.0,16.0,74,0.00,RA,,0.01,0.0,WeatherDisplay:10.37,2013-01-10 10:55:00,
2013-01-10 05:00:00,39.8,32.5,30.20,ESE,107,9.0,14.0,75,0.00,,,0.01,0.0,WeatherDisplay:10.37,2013-01-10 11:00:00,
2013-01-10 05:05:00,39.6,32.6,30.19,ESE,106,7.0,17.0,76,0.00,CLR,,0.01,0.0,WeatherDisplay:10.37,2013-01-10 11:05:00,
2013-01-10 05:10:00,39.5,32.9,30.19,ESE,115,7.0,15.0,77,0.00,CLR,,0.01,0.0,WeatherDisplay:10.37,2013-01-10 11:10:00,
2013-01-10 05:15:00,39.4,33.1,30.19,ESE,121,6.0,13.0,78,0.00,CLR,,0.01,0.0,WeatherDisplay:10.37,2013-01-10 11:15:00,
2013-01-10 05:20:00,39.4,33.1,30.19,ESE,111,7.0,17.0,78,0.00,CLR,,0.01,0.0,WeatherDisplay:10.37,2013-01-10 11:20:00,
2013-01-10 05:25:00,39.3,33.0,30.18,ESE,109,9.0,14.0,78,0.00,CLR,,0.01,0.0,WeatherDisplay:10.37,2013-01-10 11:25:00,
2013-01-10 05:30:00,39.3,33.3,30.18,ESE,114,8.0,16.0,79,0.00,CLR,,0.01,0.0,WeatherDisplay:10.37,2013-01-10 11:30:00,
2013-01-10 05:35:00,39.2,33.2,30.18,ESE,113,9.0,14.0,79,0.00,CLR,,0.01,0.0,WeatherDisplay:10.37,2013-01-10 11:35:00,
2013-01-10 05:40:00,39.2,33.2,30.18,ESE,120,9.0,16.0,79,0.00,CLR,,0.01,0.0,WeatherDisplay:10.37,2013-01-10 11:40:00,
2013-01-10 05:45:00,39.1,33.4,30.18,ESE,120,9.0,17.0,80,0.00,CLR,,0.01,0.0,WeatherDisplay:10.37,2013-01-10 11:45:00,
2013-01-10 05:50:00,38.9,33.5,30.17,ESE,119,10.0,21.0,81,0.00,CLR,,0.01,0.0,WeatherDisplay:10.37,2013-01-10 11:50:00,
2013-01-10 05:55:00,38.8,33.4,30.17,ESE,117,7.0,18.0,81,0.00,CLR,,0.01,0.0,WeatherDisplay:10.37,2013-01-10 11:55:00,
2013-01-10 06:00:00,38.5,33.8,30.17,ESE,117,7.0,15.0,83,0.00,CLR,,0.01,0.0,WeatherDisplay:10.37,2013-01-10 12:00:00,
2013-01-10 06:05:00,38.2,33.8,30.17,ESE,118,10.0,17.0,84,0.01,RA,,0.02,0.0,WeatherDisplay:10.37,2013-01-10 12:05:00,
2013-01-10 06:10:00,38.1,33.7,30.16,ESE,112,9.0,15.0,84,0.00,RA,,0.02,0.0,WeatherDisplay:10.37,2013-01-10 12:10:00,
2013-01-10 06:15:00,38.0,33.9,30.16,ESE,114,9.0,20.0,85,0.00,,,0.02,0.0,WeatherDisplay:10.37,2013-01-10 12:15:00,
2013-01-10 06:20:00,37.7,33.9,30.16,ESE,112,9.0,20.0,86,0.00,CLR,,0.02,0.0,WeatherDisplay:10.37,2013-01-10 12:20:00,
2013-01-10 06:25:00,37.5,34.0,30.16,ESE,109,9.0,17.0,87,0.00,CLR,,0.02,0.0,WeatherDisplay:10.37,2013-01-10 12:25:00,
2013-01-10 06:30:00,37.4,33.9,30.16,ESE,115,9.0,20.0,87,0.00,CLR,,0.02,0.0,WeatherDisplay:10.37,2013-01-10 12:30:00,
2013-01-10 06:35:00,37.2,34.0,30.16,ESE,122,7.0,12.0,88,0.00,CLR,,0.02,0.0,WeatherDisplay:10.37,2013-01-10 12:35:00,
2013-01-10 06:40:00,37.0,34.1,30.16,ESE,116,5.0,17.0,89,0.00,CLR,,0.02,0.0,WeatherDisplay:10.37,2013-01-10 12:40:00,
2013-01-10 06:45:00,36.9,33.9,30.16,ESE,110,7.0,13.0,89,0.01,RA,,0.03,0.0,WeatherDisplay:10.37,2013-01-10 12:45:00,
2013-01-10 06:50:00,36.7,34.1,30.16,ESE,119,8.0,18.0,90,0.00,RA,,0.03,0.0,WeatherDisplay:10.37,2013-01-10 12:50:00,
2013-01-10 06:55:00,36.7,34.0,30.15,ESE,122,5.0,12.0,90,0.00,CLR,,0.03,0.0,WeatherDisplay:10.37,2013-01-10 12:55:00,
2013-01-10 07:00:00,36.6,34.2,30.15,ESE,120,7.0,13.0,91,0.00,CLR,,0.03,0.0,WeatherDisplay:10.37,2013-01-10 13:00:00,
2013-01-10 07:05:00,36.6,34.2,30.15,ESE,118,8.0,13.0,91,0.00,CLR,,0.03,0.0,WeatherDisplay:10.37,2013-01-10 13:05:00,
2013-01-10 07:10:00,36.5,34.1,30.15,ESE,114,7.0,13.0,91,0.00,OVC,,0.03,0.0,WeatherDisplay:10.37,2013-01-10 13:10:00,
2013-01-10 07:15:00,36.5,34.1,30.15,ESE,112,8.0,14.0,91,0.00,OVC,,0.03,0.0,WeatherDisplay:10.37,2013-01-10 13:15:00,
2013-01-10 07:20:00,36.4,34.0,30.15,ESE,111,8.0,12.0,91,0.00,OVC,,0.03,0.0,WeatherDisplay:10.37,2013-01-10 13:20:00,
2013-01-10 07:25:00,36.4,34.0,30.14,ESE,111,9.0,12.0,91,0.00,OVC,,0.03,0.0,WeatherDisplay:10.37,2013-01-10 13:25:00,
2013-01-10 07:30:00,36.4,34.3,30.15,ESE,110,6.0,13.0,92,0.00,OVC,,0.03,0.0,WeatherDisplay:10.37,2013-01-10 13:30:00,
2013-01-10 07:35:00,36.4,34.3,30.14,ESE,116,5.0,15.0,92,0.00,OVC,,0.03,0.0,WeatherDisplay:10.37,2013-01-10 13:35:00,
2013-01-10 07:40:00,36.4,34.3,30.13,ESE,122,7.0,13.0,92,0.00,OVC,,0.03,0.0,WeatherDisplay:10.37,2013-01-10 13:40:00,
2013-01-10 07:45:00,36.4,34.3,30.13,ESE,120,6.0,13.0,92,0.00,OVC,,0.03,0.0,WeatherDisplay:10.37,2013-01-10 13:45:00,
2013-01-10 07:50:00,36.3,34.2,30.13,ESE,114,6.0,14.0,92,0.00,OVC,,0.03,0.0,WeatherDisplay:10.37,2013-01-10 13:50:00,
2013-01-10 07:55:00,36.3,34.2,30.13,ESE,115,7.0,13.0,92,0.00,OVC,,0.03,0.0,WeatherDisplay:10.37,2013-01-10 13:55:00,
2013-01-10 08:00:00,36.3,34.2,30.13,ESE,119,5.0,10.0,92,0.00,OVC,,0.03,0.0,WeatherDisplay:10.37,2013-01-10 14:00:00,
2013-01-10 08:05:00,36.2,34.4,30.12,ESE,119,6.0,12.0,93,0.00,BKN,,0.03,5.0,WeatherDisplay:10.37,2013-01-10 14:05:00,
2013-01-10 08:10:00,36.2,34.4,30.12,SE,124,6.0,12.0,93,0.00,OVC,,0.03,5.0,WeatherDisplay:10.37,2013-01-10 14:10:00,
2013-01-10 08:15:00,36.2,34.4,30.11,ESE,115,5.0,12.0,93,0.00,BKN,,0.03,7.0,WeatherDisplay:10.37,2013-01-10 14:15:00,
2013-01-10 08:20:00,36.3,34.5,30.11,ESE,107,6.0,12.0,93,0.00,BKN,,0.03,11.0,WeatherDisplay:10.37,2013-01-10 14:20:00,
2013-01-10 08:25:00,36.3,34.5,30.11,ESE,114,8.0,16.0,93,0.00,BKN,,0.03,14.0,WeatherDisplay:10.37,2013-01-10 14:25:00,
2013-01-10 08:30:00,36.4,34.5,30.11,ESE,117,8.0,15.0,93,0.00,BKN,,0.03,14.0,WeatherDisplay:10.37,2013-01-10 14:30:00,
2013-01-10 08:35:00,36.4,34.5,30.10,ESE,114,6.0,17.0,93,0.00,BKN,,0.03,16.0,WeatherDisplay:10.37,2013-01-10 14:35:00,
2013-01-10 08:45:00,36.5,34.6,30.09,ESE,122,8.0,12.0,93,0.00,BKN,,0.03,21.0,WeatherDisplay:10.37,2013-01-10 14:45:00,
2013-01-10 08:50:00,36.6,34.7,30.10,ESE,113,6.0,12.0,93,0.00,BKN,,0.03,21.0,WeatherDisplay:10.37,2013-01-10 14:50:00,
2013-01-10 08:55:00,36.6,34.7,30.09,ESE,112,7.0,16.0,93,0.00,BKN,,0.03,23.0,WeatherDisplay:10.37,2013-01-10 14:55:00,
2013-01-10 09:00:00,36.6,34.8,30.09,ESE,109,8.0,13.0,93,0.00,BKN,,0.03,25.0,WeatherDisplay:10.37,2013-01-10 15:00:00,
2013-01-10 09:05:00,36.7,35.1,30.08,ESE,116,7.0,13.0,94,0.00,BKN,,0.03,30.0,WeatherDisplay:10.37,2013-01-10 15:05:00,
2013-01-10 09:10:00,36.7,35.1,30.07,ESE,111,8.0,15.0,94,0.00,BKN,,0.03,40.0,WeatherDisplay:10.37,2013-01-10 15:10:00,
2013-01-10 09:15:00,36.7,35.2,30.07,ESE,112,8.0,16.0,94,0.00,BKN,,0.03,30.0,WeatherDisplay:10.37,2013-01-10 15:15:00,
2013-01-10 09:20:00,36.8,35.2,30.08,ESE,115,5.0,16.0,94,0.00,BKN,,0.03,25.0,WeatherDisplay:10.37,2013-01-10 15:20:00,
2013-01-10 09:25:00,36.8,35.3,30.07,ESE,118,8.0,14.0,94,0.00,BKN,,0.03,30.0,WeatherDisplay:10.37,2013-01-10 15:25:00,
2013-01-10 09:30:00,36.9,35.3,30.08,ESE,117,6.0,14.0,94,0.00,BKN,,0.03,21.0,WeatherDisplay:10.37,2013-01-10 15:30:00,
2013-01-10 09:35:00,37.0,35.4,30.07,ESE,121,7.0,14.0,94,0.00,BKN,,0.03,26.0,WeatherDisplay:10.37,2013-01-10 15:35:00,
2013-01-10 09:40:00,37.0,35.4,30.07,ESE,122,9.0,20.0,94,0.00,BKN,,0.03,33.0,WeatherDisplay:10.37,2013-01-10 15:40:00,
2013-01-10 09:45:00,37.1,35.5,30.06,ESE,116,7.0,12.0,94,0.00,BKN,,0.03,46.0,WeatherDisplay:10.37,2013-01-10 15:45:00,
2013-01-10 09:50:00,37.2,35.6,30.06,ESE,113,9.0,17.0,94,0.00,BKN,,0.03,37.0,WeatherDisplay:10.37,2013-01-10 15:50:00,
2013-01-10 09:55:00,37.3,35.7,30.06,ESE,117,6.0,12.0,94,0.00,BKN,,0.03,33.0,WeatherDisplay:10.37,2013-01-10 15:55:00,
2013-01-10 10:00:00,37.4,35.8,30.06,ESE,119,3.0,12.0,94,0.00,BKN,,0.03,40.0,WeatherDisplay:10.37,2013-01-10 16:00:00,
2013-01-10 10:05:00,37.5,35.9,30.05,ESE,122,5.0,20.0,94,0.00,BKN,,0.03,30.0,WeatherDisplay:10.37,2013-01-10 16:05:00,
2013-01-10 10:10:00,37.5,36.0,30.05,ESE,123,5.0,14.0,94,0.00,OVC,,0.03,28.0,WeatherDisplay:10.37,2013-01-10 16:10:00,
2013-01-10 10:15:00,37.6,36.0,30.05,ESE,117,7.0,12.0,94,0.00,OVC,,0.03,37.0,WeatherDisplay:10.37,2013-01-10 16:15:00,
2013-01-10 10:20:00,37.6,36.0,30.04,ESE,115,7.0,13.0,94,0.00,BKN,,0.03,39.0,WeatherDisplay:10.37,2013-01-10 16:20:00,
2013-01-10 10:25:00,37.7,36.1,30.04,ESE,116,5.0,14.0,94,0.00,BKN,,0.03,40.0,WeatherDisplay:10.37,2013-01-10 16:25:00,
2013-01-10 10:30:00,37.8,36.2,30.03,ESE,121,6.0,13.0,94,0.00,BKN,,0.03,44.0,WeatherDisplay:10.37,2013-01-10 16:30:00,
2013-01-10 10:35:00,37.9,36.6,30.02,ESE,122,9.0,13.0,95,0.00,BKN,,0.03,62.0,WeatherDisplay:10.37,2013-01-10 16:35:00,
2013-01-10 10:40:00,37.9,36.6,30.01,ESE,120,7.0,14.0,95,0.01,RA,,0.04,58.0,WeatherDisplay:10.37,2013-01-10 16:40:00,
2013-01-10 10:45:00,38.0,36.7,30.01,ESE,120,6.0,13.0,95,0.00,RA,,0.04,33.0,WeatherDisplay:10.37,2013-01-10 16:45:00,
2013-01-10 10:50:00,38.0,36.7,30.01,ESE,118,5.0,12.0,95,0.00,BKN,,0.04,42.0,WeatherDisplay:10.37,2013-01-10 16:50:00,
2013-01-10 10:55:00,38.0,36.7,30.00,ESE,117,6.0,14.0,95,0.00,OVC,,0.04,37.0,WeatherDisplay:10.37,2013-01-10 16:55:00,
2013-01-10 11:00:00,38.0,36.7,30.00,ESE,122,6.0,14.0,95,0.00,OVC,,0.04,49.0,WeatherDisplay:10.37,2013-01-10 17:00:00,
2013-01-10 11:05:00,38.1,36.8,29.99,ESE,122,7.0,14.0,95,0.01,RA,,0.05,54.0,WeatherDisplay:10.37,2013-01-10 17:05:00,
2013-01-10 11:10:00,38.2,36.9,29.98,SE,131,6.0,13.0,95,0.00,RA,,0.05,60.0,WeatherDisplay:10.37,2013-01-10 17:10:00,
2013-01-10 11:15:00,38.3,37.0,29.98,SE,134,3.0,12.0,95,0.00,BKN,,0.05,44.0,WeatherDisplay:10.37,2013-01-10 17:15:00,
2013-01-10 11:20:00,38.4,37.1,29.99,SE,131,6.0,12.0,95,0.00,OVC,,0.05,26.0,WeatherDisplay:10.37,2013-01-10 17:20:00,
2013-01-10 11:25:00,38.4,37.1,29.99,SE,133,6.0,12.0,95,0.00,OVC,,0.05,26.0,WeatherDisplay:10.37,2013-01-10 17:25:00,
2013-01-10 11:30:00,38.5,37.2,29.98,SE,133,6.0,13.0,95,0.00,OVC,,0.05,26.0,WeatherDisplay:10.37,2013-01-10 17:30:00,
2013-01-10 11:35:00,38.5,37.2,29.97,SE,130,5.0,12.0,95,0.00,OVC,,0.05,33.0,WeatherDisplay:10.37,2013-01-10 17:35:00,
2013-01-10 11:40:00,38.5,37.2,29.97,ESE,117,7.0,14.0,95,0.00,OVC,,0.05,32.0,WeatherDisplay:10.37,2013-01-10 17:40:00,
2013-01-10 11:45:00,38.6,37.3,29.97,ESE,123,7.0,14.0,95,0.00,OVC,,0.05,53.0,WeatherDisplay:10.37,2013-01-10 17:45:00,
2013-01-10 11:50:00,38.8,37.5,29.96,SE,131,7.0,14.0,95,0.01,RA,,0.06,67.0,WeatherDisplay:10.37,2013-01-10 17:50:00,
2013-01-10 11:55:00,38.9,37.6,29.95,SE,131,6.0,12.0,95,0.01,RA,,0.07,70.0,WeatherDisplay:10.37,2013-01-10 17:55:00,
2013-01-10 12:00:00,39.0,37.7,29.95,ESE,121,7.0,14.0,95,0.01,RA,,0.08,72.0,WeatherDisplay:10.37,2013-01-10 18:00:00,
2013-01-10 12:05:00,39.0,37.7,29.95,ESE,121,3.0,13.0,95,0.00,RA,,0.08,37.0,WeatherDisplay:10.37,2013-01-10 18:05:00,
2013-01-10 12:10:00,39.1,37.8,29.94,ESE,123,3.0,7.0,95,0.00,OVC,,0.08,49.0,WeatherDisplay:10.37,2013-01-10 18:10:00,
2013-01-10 12:20:00,39.5,38.1,29.93,SE,132,3.0,14.0,95,0.00,OVC,,0.08,44.0,WeatherDisplay:10.37,2013-01-10 18:20:00,
2013-01-10 12:25:00,39.7,38.4,29.92,SE,142,3.0,12.0,95,0.00,OVC,,0.08,53.0,WeatherDisplay:10.37,2013-01-10 18:25:00,
2013-01-10 12:30:00,39.7,38.4,29.92,SE,146,3.0,10.0,95,0.00,OVC,,0.08,39.0,WeatherDisplay:10.37,2013-01-10 18:30:00,
2013-01-10 12:35:00,39.7,38.4,29.92,SSE,155,6.0,13.0,95,0.00,OVC,,0.08,33.0,WeatherDisplay:10.37,2013-01-10 18:35:00,
2013-01-10 12:40:00,39.9,38.6,29.92,SE,138,5.0,12.0,95,0.00,OVC,,0.08,35.0,WeatherDisplay:10.37,2013-01-10 18:40:00,
2013-01-10 12:45:00,40.1,38.7,29.92,SE,134,3.0,14.0,95,0.00,OVC,,0.08,30.0,WeatherDisplay:10.37,2013-01-10 18:45:00,
2013-01-10 12:55:00,40.2,38.9,29.91,SE,126,6.0,12.0,95,0.00,RA,,0.09,35.0,WeatherDisplay:10.37,2013-01-10 18:55:00,
2013-01-10 13:00:00,40.6,39.3,29.90,SE,137,6.0,12.0,95,0.00,OVC,,0.09,37.0,WeatherDisplay:10.37,2013-01-10 19:00:00,
2013-01-10 13:05:00,40.6,39.3,29.89,SE,133,5.0,9.0,95,0.00,OVC,,0.09,46.0,WeatherDisplay:10.37,2013-01-10 19:05:00,
2013-01-10 13:10:00,40.8,39.7,29.89,SE,139,5.0,10.0,96,0.00,BKN,,0.09,49.0,WeatherDisplay:10.37,2013-01-10 19:10:00,
2013-01-10 13:15:00,40.9,39.8,29.89,SSE,147,3.0,10.0,96,0.00,BKN,,0.09,39.0,WeatherDisplay:10.37,2013-01-10 19:15:00,
2013-01-10 13:20:00,41.0,39.9,29.89,SE,142,6.0,10.0,96,0.00,OVC,,0.09,46.0,WeatherDisplay:10.37,2013-01-10 19:20:00,
2013-01-10 13:25:00,41.1,40.1,29.89,SE,143,3.0,9.0,96,0.00,OVC,,0.09,53.0,WeatherDisplay:10.37,2013-01-10 19:25:00,
2013-01-10 13:30:00,41.3,40.3,29.89,SE,142,2.0,10.0,96,0.00,BKN,,0.09,77.0,WeatherDisplay:10.37,2013-01-10 19:30:00,
2013-01-10 13:35:00,41.6,40.6,29.88,SSE,151,3.0,10.0,96,0.00,BKN,,0.09,67.0,WeatherDisplay:10.37,2013-01-10 19:35:00,
2013-01-10 13:40:00,41.9,40.8,29.88,SSE,153,3.0,9.0,96,0.00,BKN,,0.09,81.0,WeatherDisplay:10.37,2013-01-10 19:40:00,
2013-01-10 13:45:00,42.0,40.9,29.88,SE,141,3.0,7.0,96,0.00,BKN,,0.09,65.0,WeatherDisplay:10.37,2013-01-10 19:45:00,
2013-01-10 13:50:00,42.0,40.9,29.87,SE,135,1.0,9.0,96,0.00,BKN,,0.09,65.0,WeatherDisplay:10.37,2013-01-10 19:50:00,
2013-01-10 13:55:00,42.1,41.0,29.87,SE,133,2.0,7.0,96,0.00,BKN,,0.09,44.0,WeatherDisplay:10.37,2013-01-10 19:55:00,
2013-01-10 14:00:00,42.2,41.1,29.87,SE,137,2.0,6.0,96,0.00,BKN,,0.09,35.0,WeatherDisplay:10.37,2013-01-10 20:00:00,
2013-01-10 14:05:00,42.4,41.3,29.86,SSE,148,5.0,7.0,96,0.00,BKN,,0.09,58.0,WeatherDisplay:10.37,2013-01-10 20:05:00,
2013-01-10 14:10:00,42.6,41.5,29.87,SE,144,3.0,12.0,96,0.00,BKN,,0.09,46.0,WeatherDisplay:10.37,2013-01-10 20:10:00,
2013-01-10 14:15:00,42.7,41.6,29.87,SSE,155,2.0,9.0,96,0.00,BKN,,0.09,33.0,WeatherDisplay:10.37,2013-01-10 20:15:00,
2013-01-10 14:20:00,42.7,41.6,29.87,SSE,160,2.0,6.0,96,0.00,OVC,,0.09,33.0,WeatherDisplay:10.37,2013-01-10 20:20:00,
2013-01-10 14:25:00,42.8,41.7,29.88,SSE,149,1.0,7.0,96,0.00,OVC,,0.09,33.0,WeatherDisplay:10.37,2013-01-10 20:25:00,
2013-01-10 14:30:00,42.8,41.7,29.87,SE,142,2.0,6.0,96,0.00,OVC,,0.09,32.0,WeatherDisplay:10.37,2013-01-10 20:30:00,
2013-01-10 14:35:00,42.8,41.7,29.87,SSE,151,2.0,7.0,96,0.00,OVC,,0.09,39.0,WeatherDisplay:10.37,2013-01-10 20:35:00,
2013-01-10 14:40:00,42.9,41.8,29.87,SSE,160,2.0,6.0,96,0.00,BKN,,0.09,60.0,WeatherDisplay:10.37,2013-01-10 20:40:00,
2013-01-10 14:45:00,43.0,41.9,29.86,SSE,151,2.0,7.0,96,0.00,BKN,,0.09,67.0,WeatherDisplay:10.37,2013-01-10 20:45:00,
2013-01-10 14:50:00,43.1,42.0,29.85,SE,136,1.0,4.0,96,0.01,RA,,0.10,69.0,WeatherDisplay:10.37,2013-01-10 20:50:00,
2013-01-10 14:55:00,43.3,42.2,29.85,SE,135,3.0,7.0,96,0.00,RA,,0.10,49.0,WeatherDisplay:10.37,2013-01-10 20:55:00,
2013-01-10 15:00:00,43.3,42.2,29.85,SE,132,2.0,8.0,96,0.00,BKN,,0.10,51.0,WeatherDisplay:10.37,2013-01-10 21:00:00,
2013-01-10 15:05:00,43.4,42.3,29.85,SE,138,2.0,6.0,96,0.00,BKN,,0.10,42.0,WeatherDisplay:10.37,2013-01-10 21:05:00,
2013-01-10 15:10:00,43.5,42.4,29.85,SSE,147,2.0,6.0,96,0.00,BKN,,0.10,37.0,WeatherDisplay:10.37,2013-01-10 21:10:00,
2013-01-10 15:15:00,43.6,42.5,29.85,SE,134,5.0,10.0,96,0.01,RA,,0.11,32.0,WeatherDisplay:10.37,2013-01-10 21:15:00,
2013-01-10 15:20:00,43.6,42.6,29.85,SE,136,1.0,5.0,96,0.00,RA,,0.11,21.0,WeatherDisplay:10.37,2013-01-10 21:20:00,
2013-01-10 15:25:00,43.8,42.7,29.85,SSE,158,2.0,5.0,96,0.01,RA,,0.12,44.0,WeatherDisplay:10.37,2013-01-10 21:25:00,
2013-01-10 15:30:00,43.8,42.7,29.85,SSE,149,1.0,6.0,96,0.01,RA,,0.13,54.0,WeatherDisplay:10.37,2013-01-10 21:30:00,
2013-01-10 15:35:00,43.9,42.9,29.85,SE,137,1.0,7.0,96,0.00,RA,,0.13,32.0,WeatherDisplay:10.37,2013-01-10 21:35:00,
2013-01-10 15:40:00,44.0,42.9,29.85,SE,129,3.0,9.0,96,0.00,BKN,,0.13,18.0,WeatherDisplay:10.37,2013-01-10 21:40:00,
2013-01-10 15:45:00,44.0,42.9,29.85,SE,128,3.0,6.0,96,0.00,OVC,,0.13,9.0,WeatherDisplay:10.37,2013-01-10 21:45:00,
2013-01-10 15:50:00,44.0,42.9,29.85,SE,137,3.0,7.0,96,0.00,OVC,,0.13,7.0,WeatherDisplay:10.37,2013-01-10 21:50:00,
2013-01-10 15:55:00,44.0,42.9,29.85,SSE,150,2.0,4.0,96,0.01,RA,,0.14,11.0,WeatherDisplay:10.37,2013-01-10 21:55:00,
2013-01-10 16:00:00,44.0,42.9,29.84,SSE,153,1.0,4.0,96,0.04,RA,,0.18,14.0,WeatherDisplay:10.37,2013-01-10 22:00:00,
2013-01-10 16:05:00,44.1,43.0,29.84,SSE,154,0.0,5.0,96,0.00,RA,,0.18,21.0,WeatherDisplay:10.37,2013-01-10 22:05:00,
2013-01-10 16:10:00,44.2,43.1,29.84,SSE,154,1.0,2.0,96,0.01,RA,,0.19,25.0,WeatherDisplay:10.37,2013-01-10 22:10:00,
2013-01-10 16:15:00,44.2,43.1,29.84,SSE,154,1.0,2.0,96,0.00,RA,,0.19,28.0,WeatherDisplay:10.37,2013-01-10 22:15:00,
2013-01-10 16:20:00,44.2,43.2,29.84,SSE,154,2.0,4.0,96,0.00,CLR,,0.19,11.0,WeatherDisplay:10.37,2013-01-10 22:20:00,
2013-01-10 16:25:00,44.2,43.1,29.84,SSE,154,2.0,4.0,96,0.00,OVC,,0.19,0.0,WeatherDisplay:10.37,2013-01-10 22:25:00,
2013-01-10 16:30:00,44.2,43.1,29.84,SSE,154,2.0,5.0,96,0.00,OVC,,0.19,0.0,WeatherDisplay:10.37,2013-01-10 22:30:00,
2013-01-10 16:35:00,44.2,43.1,29.83,SSE,153,2.0,4.0,96,0.00,OVC,,0.19,0.0,WeatherDisplay:10.37,2013-01-10 22:35:00,
2013-01-10 16:40:00,44.2,43.1,29.83,SSE,153,1.0,4.0,96,0.00,BKN,,0.19,9.0,WeatherDisplay:10.37,2013-01-10 22:40:00,
2013-01-10 16:45:00,44.2,43.1,29.83,SSE,153,0.0,3.0,96,0.01,RA,,0.20,7.0,WeatherDisplay:10.37,2013-01-10 22:45:00,
2013-01-10 16:50:00,44.2,43.1,29.83,SSE,153,1.0,2.0,96,0.00,RA,,0.20,0.0,WeatherDisplay:10.37,2013-01-10 22:50:00,
2013-01-10 16:55:00,44.3,43.2,29.83,SSE,153,2.0,3.0,96,0.00,CLR,,0.20,0.0,WeatherDisplay:10.37,2013-01-10 22:55:00,
2013-01-10 17:00:00,44.3,43.2,29.83,SSE,153,0.0,3.0,96,0.00,OVC,,0.20,0.0,WeatherDisplay:10.37,2013-01-10 23:00:00,
2013-01-10 17:05:00,44.3,43.2,29.83,SSE,153,0.0,4.0,96,0.00,OVC,,0.20,0.0,WeatherDisplay:10.37,2013-01-10 23:05:00,
2013-01-10 17:10:00,44.3,43.2,29.83,SSE,153,1.0,2.0,96,0.00,OVC,,0.20,0.0,WeatherDisplay:10.37,2013-01-10 23:10:00,
2013-01-10 17:15:00,44.3,43.2,29.83,SSE,153,0.0,1.0,96,0.00,OVC,,0.20,0.0,WeatherDisplay:10.37,2013-01-10 23:15:00,
2013-01-10 17:20:00,44.3,43.2,29.83,SSE,153,1.0,2.0,96,0.00,OVC,,0.20,0.0,WeatherDisplay:10.37,2013-01-10 23:20:00,
2013-01-10 17:25:00,44.3,43.5,29.83,SSE,153,1.0,2.0,97,0.00,OVC,,0.20,0.0,WeatherDisplay:10.37,2013-01-10 23:25:00,
2013-01-10 17:30:00,44.3,43.8,29.83,SSE,153,0.0,0.0,98,0.01,RA,,0.21,0.0,WeatherDisplay:10.37,2013-01-10 23:30:00,
2013-01-10 17:40:00,44.3,44.3,29.83,SSE,153,1.0,3.0,100,0.01,RA,,0.24,0.0,WeatherDisplay:10.37,2013-01-10 23:40:00,
2013-01-10 17:45:00,44.3,44.3,29.83,SSE,153,0.0,2.0,100,0.00,RA,,0.24,0.0,WeatherDisplay:10.37,2013-01-10 23:45:00,
2013-01-10 17:50:00,44.3,44.3,29.83,SSE,153,0.0,2.0,100,0.00,CLR,,0.24,0.0,WeatherDisplay:10.37,2013-01-10 23:50:00,
2013-01-10 17:55:00,44.3,44.3,29.84,SSE,153,0.0,2.0,100,0.01,RA,,0.25,0.0,WeatherDisplay:10.37,2013-01-10 23:55:00,
2013-01-10 18:00:00,44.3,44.3,29.84,SSE,153,0.0,2.0,100,0.02,RA,,0.27,0.0,WeatherDisplay:10.37,2013-01-11 00:00:00,
2013-01-10 18:05:00,44.3,44.3,29.84,SSE,153,0.0,2.0,100,0.03,RA,,0.30,0.0,WeatherDisplay:10.37,2013-01-11 00:05:00,
2013-01-10 18:15:00,44.3,44.3,29.84,SSE,153,0.0,0.0,100,0.02,RA,,0.33,0.0,WeatherDisplay:10.37,2013-01-11 00:15:00,
2013-01-10 18:20:00,44.4,44.4,29.84,SSE,153,0.0,0.0,100,0.00,RA,,0.33,0.0,WeatherDisplay:10.37,2013-01-11 00:20:00,
2013-01-10 18:25:00,44.4,44.4,29.83,SSE,153,0.0,0.0,100,0.00,CLR,,0.33,0.0,WeatherDisplay:10.37,2013-01-11 00:25:00,
2013-01-10 18:30:00,44.4,44.4,29.84,SSE,153,0.0,0.0,100,0.00,CLR,,0.33,0.0,WeatherDisplay:10.37,2013-01-11 00:30:00,
2013-01-10 18:35:00,44.5,44.5,29.84,SSE,153,0.0,0.0,100,0.00,CLR,,0.33,0.0,WeatherDisplay:10.37,2013-01-11 00:35:00,
2013-01-10 18:45:00,44.5,44.5,29.82,SSE,153,0.0,0.0,100,0.00,CLR,,0.33,0.0,WeatherDisplay:10.37,2013-01-11 00:45:00,
2013-01-10 18:50:00,44.4,44.4,29.82,SSE,153,0.0,0.0,100,0.01,RA,,0.34,0.0,WeatherDisplay:10.37,2013-01-11 00:50:00,
2013-01-10 18:55:00,44.4,44.4,29.81,SSE,153,0.0,0.0,100,0.00,RA,,0.34,0.0,WeatherDisplay:10.37,2013-01-11 00:55:00,
2013-01-10 19:00:00,44.3,44.3,29.80,SSE,153,0.0,0.0,100,0.00,,,0.34,0.0,WeatherDisplay:10.37,2013-01-11 01:00:00,
2013-01-10 19:10:00,44.5,44.5,29.79,SSE,153,2.0,4.0,100,0.00,CLR,,0.34,0.0,WeatherDisplay:10.37,2013-01-11 01:10:00,
2013-01-10 19:15:00,44.5,44.5,29.79,SSE,150,3.0,5.0,100,0.00,CLR,,0.34,0.0,WeatherDisplay:10.37,2013-01-11 01:15:00,
2013-01-10 19:20:00,44.5,44.5,29.78,SE,138,2.0,5.0,100,0.00,CLR,,0.34,0.0,WeatherDisplay:10.37,2013-01-11 01:20:00,
2013-01-10 19:30:00,44.6,44.6,29.77,ESE,113,2.0,7.0,100,0.00,CLR,,0.34,0.0,WeatherDisplay:10.37,2013-01-11 01:30:00,
2013-01-10 19:35:00,44.7,44.7,29.77,East,93,5.0,7.0,100,0.00,CLR,,0.34,0.0,WeatherDisplay:10.37,2013-01-11 01:35:00,
2013-01-10 19:45:00,44.7,44.7,29.77,East,101,5.0,7.0,100,0.00,CLR,,0.34,0.0,WeatherDisplay:10.37,2013-01-11 01:45:00,
2013-01-10 19:50:00,44.7,44.7,29.76,ESE,102,5.0,10.0,100,0.00,CLR,,0.34,0.0,WeatherDisplay:10.37,2013-01-11 01:50:00,
2013-01-10 19:55:00,44.8,44.8,29.76,ESE,102,3.0,7.0,100,0.00,,,0.34,0.0,WeatherDisplay:10.37,2013-01-11 01:55:00,
2013-01-10 20:00:00,44.9,44.9,29.77,ESE,115,6.0,10.0,100,0.00,,,0.34,0.0,WeatherDisplay:10.37,2013-01-11 02:00:00,
2013-01-10 20:05:00,44.9,44.9,29.78,SE,131,3.0,9.0,100,0.00,,,0.34,0.0,WeatherDisplay:10.37,2013-01-11 02:05:00,
2013-01-10 20:10:00,44.9,44.9,29.79,SE,142,2.0,7.0,100,0.00,,,0.34,0.0,WeatherDisplay:10.37,2013-01-11 02:10:00,
2013-01-10 20:15:00,44.9,44.9,29.79,SSE,154,1.0,7.0,100,0.00,,,0.34,0.0,WeatherDisplay:10.37,2013-01-11 02:15:00,
2013-01-10 20:20:00,44.9,44.9,29.79,SSE,159,1.0,5.0,100,0.00,,,0.34,0.0,WeatherDisplay:10.37,2013-01-11 02:20:00,
2013-01-10 20:25:00,44.9,44.9,29.80,SSE,159,2.0,6.0,100,0.00,,,0.34,0.0,WeatherDisplay:10.37,2013-01-11 02:25:00,
2013-01-10 20:30:00,45.1,45.1,29.79,SSE,161,1.0,7.0,100,0.00,,,0.34,0.0,WeatherDisplay:10.37,2013-01-11 02:30:00,
2013-01-10 20:35:00,45.2,45.2,29.79,SSE,159,3.0,6.0,100,0.00,,,0.34,0.0,WeatherDisplay:10.37,2013-01-11 02:35:00,
2013-01-10 20:40:00,45.4,45.4,29.79,SSE,159,2.0,6.0,100,0.00,,,0.34,0.0,WeatherDisplay:10.37,2013-01-11 02:40:00,
2013-01-10 20:45:00,45.6,45.6,29.78,SSE,163,2.0,8.0,100,0.00,,,0.34,0.0,WeatherDisplay:10.37,2013-01-11 02:45:00,
2013-01-10 20:55:00,45.6,45.6,29.78,SSE,159,3.0,7.0,100,0.00,,,0.34,0.0,WeatherDisplay:10.37,2013-01-11 02:55:00,
2013-01-10 21:00:00,45.8,45.8,29.78,SSE,161,2.0,9.0,100,0.00,,,0.34,0.0,WeatherDisplay:10.37,2013-01-11 03:00:00,
2013-01-10 21:05:00,45.8,45.8,29.78,SSE,160,2.0,6.0,100,0.00,,,0.34,0.0,WeatherDisplay:10.37,2013-01-11 03:05:00,
2013-01-10 21:10:00,46.0,46.0,29.78,SSE,160,2.0,8.0,100,0.00,,,0.34,0.0,WeatherDisplay:10.37,2013-01-11 03:10:00,
2013-01-10 21:15:00,46.0,46.0,29.77,SSE,164,1.0,5.0,100,0.00,,,0.34,0.0,WeatherDisplay:10.37,2013-01-11 03:15:00,
2013-01-10 21:20:00,46.1,46.1,29.77,SSE,165,2.0,6.0,100,0.00,,,0.34,0.0,WeatherDisplay:10.37,2013-01-11 03:20:00,
2013-01-10 21:25:00,46.4,46.4,29.77,South,173,3.0,10.0,100,0.00,,,0.34,0.0,WeatherDisplay:10.37,2013-01-11 03:25:00,
2013-01-10 21:30:00,46.7,46.7,29.77,South,178,3.0,9.0,100,0.00,CLR,,0.34,0.0,WeatherDisplay:10.37,2013-01-11 03:30:00,
2013-01-10 21:35:00,47.0,47.0,29.78,SSW,199,5.0,12.0,100,0.00,CLR,,0.34,0.0,WeatherDisplay:10.37,2013-01-11 03:35:00,
2013-01-10 21:40:00,47.1,47.1,29.77,SSW,204,6.0,12.0,100,0.00,CLR,,0.34,0.0,WeatherDisplay:10.37,2013-01-11 03:40:00,
2013-01-10 21:45:00,47.3,47.3,29.77,SSW,201,6.0,12.0,100,0.00,CLR,,0.34,0.0,WeatherDisplay:10.37,2013-01-11 03:45:00,
2013-01-10 21:50:00,47.5,47.5,29.77,SSW,201,6.0,14.0,100,0.00,CLR,,0.34,0.0,WeatherDisplay:10.37,2013-01-11 03:50:00,
2013-01-10 21:55:00,47.7,47.7,29.76,SSW,202,2.0,9.0,100,0.00,CLR,,0.34,0.0,WeatherDisplay:10.37,2013-01-11 03:55:00,
2013-01-10 22:00:00,47.8,47.8,29.75,SSW,197,6.0,12.0,100,0.00,CLR,,0.34,0.0,WeatherDisplay:10.37,2013-01-11 04:00:00,
2013-01-10 22:05:00,47.8,47.8,29.75,SSW,206,7.0,14.0,100,0.00,CLR,,0.34,0.0,WeatherDisplay:10.37,2013-01-11 04:05:00,
2013-01-10 22:10:00,47.8,47.8,29.75,SSW,213,6.0,12.0,100,0.00,CLR,,0.34,0.0,WeatherDisplay:10.37,2013-01-11 04:10:00,
2013-01-10 22:15:00,47.6,47.6,29.76,SSW,212,7.0,16.0,100,0.00,CLR,,0.34,0.0,WeatherDisplay:10.37,2013-01-11 04:15:00,
2013-01-10 22:20:00,47.8,47.8,29.75,SSW,200,8.0,17.0,100,0.00,CLR,,0.34,0.0,WeatherDisplay:10.37,2013-01-11 04:20:00,
2013-01-10 22:25:00,47.8,47.8,29.75,SSW,200,7.0,15.0,100,0.00,CLR,,0.34,0.0,WeatherDisplay:10.37,2013-01-11 04:25:00,
2013-01-10 22:30:00,47.8,47.8,29.75,SSW,201,9.0,15.0,100,0.00,CLR,,0.34,0.0,WeatherDisplay:10.37,2013-01-11 04:30:00,
2013-01-10 22:35:00,47.8,47.8,29.75,SSW,207,9.0,16.0,100,0.00,CLR,,0.34,0.0,WeatherDisplay:10.37,2013-01-11 04:35:00,
2013-01-10 22:40:00,47.8,47.8,29.75,SSW,205,6.0,17.0,100,0.00,CLR,,0.34,0.0,WeatherDisplay:10.37,2013-01-11 04:40:00,
2013-01-10 22:45:00,47.9,47.9,29.75,SSW,209,10.0,16.0,100,0.00,CLR,,0.34,0.0,WeatherDisplay:10.37,2013-01-11 04:45:00,
2013-01-10 22:50:00,47.9,47.9,29.75,SSW,211,8.0,14.0,100,0.00,CLR,,0.34,0.0,WeatherDisplay:10.37,2013-01-11 04:50:00,
2013-01-10 22:55:00,47.8,47.8,29.75,SW,214,9.0,14.0,100,0.00,CLR,,0.34,0.0,WeatherDisplay:10.37,2013-01-11 04:55:00,
2013-01-10 23:05:00,47.7,47.7,29.75,SW,219,9.0,16.0,100,0.00,CLR,,0.34,0.0,WeatherDisplay:10.37,2013-01-11 05:05:00,
2013-01-10 23:10:00,47.7,47.7,29.74,SW,217,10.0,18.0,100,0.00,CLR,,0.34,0.0,WeatherDisplay:10.37,2013-01-11 05:10:00,
2013-01-10 23:15:00,47.6,47.6,29.73,SW,221,9.0,15.0,100,0.00,CLR,,0.34,0.0,WeatherDisplay:10.37,2013-01-11 05:15:00,
2013-01-10 23:20:00,47.6,47.6,29.73,SSW,212,6.0,13.0,100,0.00,CLR,,0.34,0.0,WeatherDisplay:10.37,2013-01-11 05:20:00,
2013-01-10 23:25:00,47.6,47.6,29.73,SSW,208,9.0,14.0,100,0.00,CLR,,0.34,0.0,WeatherDisplay:10.37,2013-01-11 05:25:00,
2013-01-10 23:30:00,47.6,47.6,29.73,SW,215,6.0,14.0,100,0.00,CLR,,0.34,0.0,WeatherDisplay:10.37,2013-01-11 05:30:00,
2013-01-10 23:35:00,47.5,47.5,29.73,SW,216,7.0,12.0,100,0.00,CLR,,0.34,0.0,WeatherDisplay:10.37,2013-01-11 05:35:00,
2013-01-10 23:40:00,47.5,47.5,29.73,SSW,211,8.0,12.0,100,0.00,CLR,,0.34,0.0,WeatherDisplay:10.37,2013-01-11 05:40:00,
2013-01-10 23:45:00,47.5,47.5,29.73,SSW,212,8.0,12.0,100,0.00,CLR,,0.34,0.0,WeatherDisplay:10.37,2013-01-11 05:45:00,
2013-01-10 23:50:00,47.5,47.5,29.73,SSW,208,7.0,12.0,100,0.00,CLR,,0.34,0.0,WeatherDisplay:10.37,2013-01-11 05:50:00,
2013-01-10 23:55:00,47.5,47.5,29.74,SSW,208,7.0,12.0,100,0.00,CLR,,0.34,0.0,WeatherDisplay:10.37,2013-01-11 05:55:00,